When you browse on this site, cookies collect data to enhance your experience and personalize the content and advertising you see.
Visit our Privacy Policy to learn more. By continuing to use the site, you agree to this use of cookies and data.
  • In Lithuania
  • List of Countries
  • For 7 days
  • Water Temperature
  • Satellite Maps
  • Weather Map
  • Weather Widgets
  • user-avatar
    Login

    Hourly Weather San Cristóbal

    Today, 25 June, Tuesday

    Time Temperature Precipitation Wind Pressure Humidity
    00:00 +20°C° 0.1 mm 1 mps 673 mmHg 85%
    01:00 +20°C° 0 mm 1 mps 672 mmHg 85%
    02:00 +20°C° 0 mm 1 mps 672 mmHg 84%
    03:00 +20°C° 0 mm 1 mps 672 mmHg 84%
    04:00 +20°C° 0 mm 1 mps 672 mmHg 83%
    05:00 +18°C° 0 mm 0 mps 672 mmHg 83%
    06:00 +19°C° 0 mm 0 mps 673 mmHg 84%
    07:00 +19°C° 0 mm 0 mps 673 mmHg 84%
    08:00 +20°C° 0.1 mm 0 mps 673 mmHg 80%
    09:00 +23°C° 0.1 mm 1 mps 674 mmHg 76%
    10:00 +25°C° 0.1 mm 1 mps 674 mmHg 71%
    11:00 +24°C° 0.7 mm 1 mps 674 mmHg 78%
    12:00 +23°C° 0.7 mm 2 mps 673 mmHg 84%
    13:00 +21°C° 0.7 mm 2 mps 673 mmHg 91%
    14:00 +21°C° 0.7 mm 2 mps 672 mmHg 91%
    15:00 +22°C° 0.7 mm 1 mps 672 mmHg 92%
    16:00 +21°C° 0.7 mm 1 mps 671 mmHg 92%
    17:00 +21°C° 0 mm 1 mps 671 mmHg 91%
    18:00 +21°C° 0 mm 1 mps 672 mmHg 90%
    19:00 +20°C° 0 mm 1 mps 672 mmHg 89%
    20:00 +21°C° 0 mm 1 mps 672 mmHg 85%
    21:00 +21°C° 0 mm 1 mps 672 mmHg 82%
    22:00 +21°C° 0 mm 1 mps 673 mmHg 78%
    23:00 +21°C° 0 mm 1 mps 673 mmHg 78%

    Tomorrow, 26 June, Wednesday

    Time Temperature Precipitation Wind Pressure Humidity
    00:00 +21°C° 0 mm 1 mps 673 mmHg 77%
    01:00 +21°C° 0 mm 1 mps 672 mmHg 77%
    02:00 +21°C° 0 mm 1 mps 672 mmHg 78%
    03:00 +21°C° 0 mm 1 mps 672 mmHg 79%
    04:00 +21°C° 0 mm 1 mps 672 mmHg 80%
    05:00 +21°C° 0.1 mm 1 mps 672 mmHg 81%
    06:00 +21°C° 0.1 mm 1 mps 673 mmHg 81%
    07:00 +22°C° 0.1 mm 1 mps 673 mmHg 82%
    08:00 +23°C° 0.1 mm 2 mps 673 mmHg 76%
    09:00 +24°C° 0.1 mm 2 mps 674 mmHg 71%
    10:00 +26°C° 0.1 mm 2 mps 674 mmHg 66%
    11:00 +26°C° 0.2 mm 2 mps 673 mmHg 64%
    12:00 +27°C° 0.2 mm 2 mps 673 mmHg 62%
    13:00 +27°C° 0.2 mm 3 mps 673 mmHg 60%
    14:00 +27°C° 0.1 mm 3 mps 672 mmHg 59%
    15:00 +27°C° 0.1 mm 3 mps 671 mmHg 59%
    16:00 +27°C° 0.1 mm 2 mps 671 mmHg 58%
    17:00 +25°C° 0.1 mm 2 mps 671 mmHg 67%
    18:00 +23°C° 0.1 mm 2 mps 671 mmHg 76%
    19:00 +21°C° 0.1 mm 1 mps 670 mmHg 85%
    20:00 +21°C° 0 mm 1 mps 671 mmHg 82%
    21:00 +20°C° 0 mm 1 mps 671 mmHg 78%
    22:00 +19°C° 0 mm 2 mps 672 mmHg 74%
    23:00 +19°C° 0 mm 2 mps 672 mmHg 74%

    Day after tomorrow, 27 June, Thursday

    Time Temperature Precipitation Wind Pressure Humidity
    00:00 +19°C° 0 mm 2 mps 671 mmHg 73%
    01:00 +19°C° 0 mm 2 mps 671 mmHg 73%
    02:00 +18°C° 0 mm 2 mps 671 mmHg 73%
    03:00 +18°C° 0 mm 2 mps 671 mmHg 74%
    04:00 +18°C° 0 mm 2 mps 671 mmHg 75%
    05:00 +19°C° 0 mm 2 mps 671 mmHg 72%
    06:00 +20°C° 0 mm 2 mps 672 mmHg 69%
    07:00 +21°C° 0 mm 2 mps 672 mmHg 67%
    08:00 +24°C° 0 mm 2 mps 673 mmHg 61%
    09:00 +26°C° 0 mm 3 mps 673 mmHg 55%
    10:00 +28°C° 0 mm 3 mps 674 mmHg 49%
    11:00 +28°C° 0 mm 3 mps 673 mmHg 47%
    12:00 +29°C° 0 mm 3 mps 673 mmHg 45%
    13:00 +29°C° 0 mm 3 mps 672 mmHg 43%
    14:00 +29°C° 0 mm 3 mps 672 mmHg 46%
    15:00 +28°C° 0 mm 3 mps 671 mmHg 49%
    16:00 +28°C° 0 mm 2 mps 670 mmHg 52%
    17:00 +25°C° 0.1 mm 2 mps 670 mmHg 64%
    18:00 +23°C° 0.1 mm 1 mps 670 mmHg 76%
    19:00 +21°C° 0.1 mm 1 mps 670 mmHg 88%
    20:00 +20°C° 0 mm 1 mps 671 mmHg 87%
    21:00 +20°C° 0 mm 1 mps 671 mmHg 87%
    22:00 +20°C° 0 mm 1 mps 672 mmHg 87%
    23:00 +19°C° 0 mm 1 mps 671 mmHg 86%

    28 June, Friday

    Time Temperature Precipitation Wind Pressure Humidity
    00:00 +19°C° 0 mm 1 mps 671 mmHg 85%
    01:00 +19°C° 0 mm 1 mps 671 mmHg 83%
    02:00 +19°C° 0 mm 1 mps 671 mmHg 84%
    03:00 +19°C° 0 mm 1 mps 671 mmHg 84%
    04:00 +18°C° 0 mm 2 mps 671 mmHg 85%
    05:00 +19°C° 0 mm 2 mps 671 mmHg 83%
    06:00 +19°C° 0 mm 2 mps 672 mmHg 81%
    07:00 +20°C° 0 mm 2 mps 672 mmHg 79%
    08:00 +23°C° 0 mm 2 mps 673 mmHg 72%
    09:00 +25°C° 0 mm 2 mps 673 mmHg 64%
    10:00 +27°C° 0 mm 3 mps 674 mmHg 56%
    11:00 +27°C° 0.2 mm 3 mps 673 mmHg 58%
    12:00 +27°C° 0.2 mm 3 mps 673 mmHg 59%
    13:00 +28°C° 0.2 mm 3 mps 672 mmHg 60%
    14:00 +27°C° 0.2 mm 2 mps 672 mmHg 62%
    15:00 +27°C° 0.2 mm 2 mps 671 mmHg 64%
    16:00 +26°C° 0.2 mm 2 mps 670 mmHg 66%
    17:00 +25°C° 0.1 mm 1 mps 670 mmHg 74%
    18:00 +23°C° 0.1 mm 1 mps 671 mmHg 82%
    19:00 +21°C° 0.1 mm 1 mps 671 mmHg 90%
    20:00 +21°C° 0.1 mm 1 mps 671 mmHg 89%
    21:00 +21°C° 0.1 mm 1 mps 672 mmHg 89%
    22:00 +20°C° 0.1 mm 1 mps 672 mmHg 88%
    23:00 +20°C° 0.2 mm 1 mps 672 mmHg 88%

    29 June, Saturday

    Time Temperature Precipitation Wind Pressure Humidity
    00:00 +20°C° 0.2 mm 1 mps 672 mmHg 88%
    01:00 +20°C° 0.2 mm 1 mps 671 mmHg 88%
    02:00 +20°C° 0.5 mm 1 mps 671 mmHg 89%
    03:00 +20°C° 0.5 mm 1 mps 671 mmHg 89%
    04:00 +20°C° 0.5 mm 1 mps 671 mmHg 90%
    05:00 +20°C° 0.7 mm 1 mps 672 mmHg 90%
    06:00 +20°C° 0.7 mm 2 mps 672 mmHg 90%
    07:00 +20°C° 0.7 mm 2 mps 673 mmHg 90%
    08:00 +20°C° 2.2 mm 2 mps 673 mmHg 90%
    09:00 +20°C° 2.2 mm 2 mps 673 mmHg 91%
    10:00 +21°C° 2.2 mm 2 mps 674 mmHg 91%
    11:00 +21°C° 0.6 mm 2 mps 673 mmHg 88%
    12:00 +21°C° 0.6 mm 2 mps 673 mmHg 84%
    13:00 +23°C° 0.6 mm 2 mps 672 mmHg 81%
    14:00 +24°C° 0.1 mm 2 mps 672 mmHg 75%
    15:00 +24°C° 0.1 mm 2 mps 672 mmHg 70%
    16:00 +25°C° 0.1 mm 1 mps 671 mmHg 65%
    17:00 +24°C° 0 mm 1 mps 671 mmHg 67%
    18:00 +22°C° 0 mm 1 mps 671 mmHg 69%
    19:00 +21°C° 0 mm 1 mps 671 mmHg 72%
    20:00 +21°C° 0 mm 1 mps 672 mmHg 70%
    21:00 +21°C° 0 mm 1 mps 672 mmHg 68%
    22:00 +21°C° 0 mm 1 mps 673 mmHg 66%
    23:00 +21°C° 0 mm 1 mps 672 mmHg 66%

    30 June, Sunday

    Time Temperature Precipitation Wind Pressure Humidity
    00:00 +21°C° 0 mm 1 mps 672 mmHg 66%
    01:00 +21°C° 0 mm 1 mps 672 mmHg 66%
    02:00 +21°C° 0 mm 1 mps 672 mmHg 68%
    03:00 +21°C° 0 mm 1 mps 672 mmHg 70%
    04:00 +21°C° 0 mm 1 mps 671 mmHg 72%
    05:00 +21°C° 0.1 mm 1 mps 672 mmHg 72%
    06:00 +22°C° 0.1 mm 1 mps 672 mmHg 72%
    07:00 +22°C° 0.1 mm 1 mps 673 mmHg 73%
    08:00 +24°C° 0.1 mm 2 mps 673 mmHg 68%
    09:00 +25°C° 0.1 mm 2 mps 674 mmHg 64%
    10:00 +27°C° 0.1 mm 3 mps 674 mmHg 60%
    11:00 +26°C° 0.3 mm 3 mps 673 mmHg 63%
    12:00 +26°C° 0.3 mm 3 mps 673 mmHg 66%
    13:00 +26°C° 0.3 mm 2 mps 672 mmHg 69%
    14:00 +26°C° 0.1 mm 2 mps 672 mmHg 66%
    15:00 +26°C° 0.1 mm 2 mps 671 mmHg 64%
    16:00 +27°C° 0.1 mm 2 mps 671 mmHg 61%
    17:00 +25°C° 0.1 mm 2 mps 671 mmHg 69%
    18:00 +23°C° 0.1 mm 2 mps 671 mmHg 77%
    19:00 +21°C° 0.1 mm 1 mps 671 mmHg 84%
    20:00 +21°C° 0 mm 1 mps 671 mmHg 83%
    21:00 +21°C° 0 mm 1 mps 672 mmHg 82%
    22:00 +20°C° 0 mm 2 mps 672 mmHg 81%
    23:00 +20°C° 0.8 mm 2 mps 672 mmHg 85%
    Show more